This is the latest recevied weather packets stored in our database for station/object SQ8AQL-16. If no packets are shown the sender has not sent any weather packets the latest 1 day(s).
| Time | Temp. | Humidity | Pressure | Rain* | Wind** | Luminosity | Snow |
|---|---|---|---|---|---|---|---|
| 1777972789 | 24.44° C | 24% | 1013.1 hPa | - | 0 m/s | 50 W/m² | - |
| 1777971888 | 23.89° C | 24% | 1013.1 hPa | - | 0.89 m/s, 116° | 46 W/m² | - |
| 1777970987 | 23.89° C | 27% | 1013.3 hPa | - | 0.45 m/s, 204° | 41 W/m² | - |
| 1777970085 | 23.33° C | 28% | 1013.5 hPa | - | 0 m/s | 40 W/m² | - |
| 1777969184 | 22.78° C | 29% | 1013.5 hPa | - | 0 m/s | 37 W/m² | - |
| 1777968283 | 22.22° C | 31% | 1013.7 hPa | - | 0 m/s | 33 W/m² | - |
| 1777967382 | 21.11° C | 32% | 1013.9 hPa | - | 0 m/s | 30 W/m² | - |
| 1777966481 | 20.56° C | 36% | 1014 hPa | - | 0 m/s | 27 W/m² | - |
| 1777965580 | 20.56° C | 36% | 1014.1 hPa | - | 0 m/s | 27 W/m² | - |
| 1777964679 | 19.44° C | 39% | 1014.2 hPa | - | 0 m/s | 26 W/m² | - |
| 1777963778 | 18.33° C | 43% | 1014.3 hPa | - | 0 m/s | 23 W/m² | - |
| 1777962877 | 17.78° C | 43% | 1014.3 hPa | - | 0 m/s | 22 W/m² | - |
| 1777961976 | 16.67° C | 45% | 1014.3 hPa | - | 0 m/s | 23 W/m² | - |
| 1777961074 | 16.11° C | 46% | 1014.3 hPa | - | 0 m/s | 22 W/m² | - |
| 1777960173 | 16.11° C | 46% | 1014.4 hPa | - | 0 m/s | 22 W/m² | - |
| 1777958372 | 14.44° C | 48% | 1014.6 hPa | - | 0 m/s | 24 W/m² | - |
| 1777957472 | 13.33° C | 49% | 1014.5 hPa | - | 0 m/s | 24 W/m² | - |
| 1777956571 | 12.22° C | 52% | 1014.5 hPa | - | 0 m/s | 17 W/m² | - |
| 1777955669 | 12.22° C | 52% | 1014.5 hPa | - | 0 m/s | 17 W/m² | - |
| 1777954769 | 11.67° C | 53% | 1014.4 hPa | - | 0 m/s | 14 W/m² | - |
* Rain since midnight (hover to see other rain measurements)
** Current wind speed in m/s (hover to see current wind gust speed)